Waarnemingen

Advertentie
Mijn weer
Biarritz, Frankrijk (7602): temperatuur & dauwpunt: 11.12.2017 07:00:00 - 17.12.2017 07:00:00 (CET)Biarritz, Frankrijk (7602): temperatuur 5cm: 11.12.2017 07:00:00 - 17.12.2017 07:00:00 (CET)Biarritz, Frankrijk (7602): temperatuur -20cm & temperatuur -100cm: 11.12.2017 07:00:00 - 17.12.2017 07:00:00 (CET)Biarritz, Frankrijk (7602): windsnelheid & windstoten: 11.12.2017 07:00:00 - 17.12.2017 07:00:00 (CET)Biarritz, Frankrijk (7602): windrichting: 11.12.2017 07:00:00 - 17.12.2017 07:00:00 (CET)Biarritz, Frankrijk (7602): luchtdruk: 11.12.2017 07:00:00 - 17.12.2017 07:00:00 (CET)Biarritz, Frankrijk (7602): zicht: 11.12.2017 07:00:00 - 17.12.2017 07:00:00 (CET)Biarritz, Frankrijk (7602): Zonneschijnduur: 11.12.2017 07:00:00 - 17.12.2017 07:00:00 (CET)Biarritz, Frankrijk (7602): neerslag: 11.12.2017 07:00:00 - 17.12.2017 07:00:00 (CET)
Datum & Tijd tt [°C] td [°C] tt 5cm [°C] tt -20cm [°C] tt -100cm [°C] ff [km/u] ff [kn] fx [km/u] fx [kn] dd ppp [hPa] vv [km] sd [min] rr [mm]
17.12.2017 07:00:00 2,4 1,5 0,7 8,1 11,3 8 4 10 5 ZZO 1031,1 10 0 0,0
17.12.2017 06:00:00 3,3 2,1 2,0 8,2 11,3 7 4 11 6 Z 1030,2 50 0 0,0
17.12.2017 05:00:00 3,5 2,8 1,2 8,4 11,3 4 2 11 6 Z 1030,4 13 0 0,0
17.12.2017 04:00:00 3,2 2,5 1,2 8,5 11,3 6 3 10 5 ZZO 1030,5 26 0 0,0
17.12.2017 03:00:00 3,3 2,4 1,7 8,6 11,3 7 4 10 5 ZZO 1030,2 13 0 0,0
17.12.2017 02:00:00 4,2 3,5 2,6 8,6 11,3 5 3 11 6 ZZW 1029,7 10 0 0,0
17.12.2017 01:00:00 4,0 3,3 2,8 8,7 11,3 5 3 9 5 ZZW 1029,9 13 0 0,4
17.12.2017 00:00:00 4,6 4,0 1,3 8,8 11,3 6 3 15 8 W 1030,2 4,7 0 0,8
16.12.2017 23:00:00 3,5 2,2 1,3 9,0 11,3 8 4 10 6 ZZO 1029,2 8 0 0,0
16.12.2017 22:00:00 4,3 3,6 1,6 9,1 11,3 4 2 13 7 ZZO 1029,0 9 0 0,0
16.12.2017 21:00:00 3,7 2,5 1,6 9,2 11,3 6 3 8 4 ZZO 1028,5 38 0 0,0
16.12.2017 20:00:00 4,7 3,7 3,3 9,3 11,3 5 3 27 15 Z 1027,8 9 0 2,0
16.12.2017 19:00:00 5,5 4,9 3,0 9,4 11,3 5 3 8 4 Z 1026,8 15 0 0,0
16.12.2017 18:00:00 6,0 5,0 4,0 9,4 11,3 4 2 10 5 Z 1025,8 30 0 0,0
16.12.2017 17:00:00 7,9 5,2 7,8 9,3 11,3 5 3 11 6 NNO 1025,2 35 15 0,0
16.12.2017 16:00:00 8,4 5,7 9,4 9,2 11,3 4 2 9 5 ZZW 1024,2 20 27 0,0
16.12.2017 15:00:00 7,6 6,2 6,4 9,2 11,3 5 3 25 13 ZW 1023,9 19 0 1,0
16.12.2017 14:00:00 6,7 4,9 6,4 9,1 11,3 18 10 31 17 WNW 1023,8 1,5 0 3,0
16.12.2017 13:00:00 9,5 5,5 9,8 9,0 11,3 6 3 12 7 WZW 1023,1 19 8 0,0
16.12.2017 12:00:00 10,1 6,6 9,5 9,0 11,3 4 2 9 5 ZW 1022,8 26 26 0,0
16.12.2017 11:00:00 7,7 6,3 7,2 9,0 11,3 4 2 7 4 ZW 1022,3 40 7 0,0
16.12.2017 10:00:00 6,5 5,4 6,5 9,0 11,3 4 2 8 5 Z 1021,5 48 0 0,0
16.12.2017 09:00:00 6,5 5,6 5,7 9,0 11,3 5 3 7 4 ZW 1020,7 26 0 0,0
16.12.2017 08:00:00 6,8 5,6 6,3 9,1 11,3 5 3 6 4 ZW 1019,7 16 0 1,0
16.12.2017 07:00:00 6,7 5,5 6,4 9,1 11,3 3 2 11 6 Z 1018,7 8 0 0,6
16.12.2017 06:00:00 7,5 5,1 5,7 9,2 11,3 5 3 12 7 NNO 1017,7 10 0 0,0
16.12.2017 05:00:00 8,5 5,2 5,7 9,2 11,3 17 9 35 19 N 1017,0 8 0 1,0
16.12.2017 04:00:00 7,4 5,2 6,0 9,3 11,3 4 2 43 23 Z 1017,2 3,0 0 1,8
16.12.2017 03:00:00 9,5 5,3 7,6 9,4 11,3 22 12 38 21 N 1015,7 19 0 0,0
16.12.2017 02:00:00 9,5 5,1 6,4 9,4 11,3 18 10 56 30 NNW 1015,2 35 0 1,4
16.12.2017 01:00:00 9,6 5,0 7,0 9,5 11,3 16 9 56 30 NW 1015,1 10 0 0,8
16.12.2017 00:00:00 10,2 4,8 6,6 9,6 11,3 25 13 47 26 NW 1015,1 20 0 0,0
15.12.2017 23:00:00 9,1 3,1 6,7 9,6 11,3 30 16 53 29 NNW 1014,6 7 0 0,2
15.12.2017 22:00:00 8,9 4,7 6,5 9,7 11,3 16 9 49 26 W 1014,0 17 0 0,4
15.12.2017 21:00:00 8,8 4,6 6,8 9,8 11,3 18 10 48 26 WNW 1013,4 19 0 1,2
15.12.2017 20:00:00 9,4 4,6 6,2 9,9 11,3 13 7 57 31 NNW 1012,7 20 0 0,4
15.12.2017 19:00:00 9,9 5,5 9,5 9,9 11,3 35 19 66 35 NW 1012,3 19 0 0,0
15.12.2017 18:00:00 10,1 5,1 7,0 10,0 11,3 22 12 68 37 WNW 1011,7 42 0 0,2
15.12.2017 17:00:00 10,7 5,2 6,2 10,0 11,3 29 16 68 37 WNW 1011,1 38 3 1,2
15.12.2017 16:00:00 11,3 6,2 9,5 10,0 11,3 41 22 64 35 W 1010,1 18 16 0,0
15.12.2017 15:00:00 10,7 5,9 7,8 10,0 11,3 38 21 61 33 WNW 1010,0 12 0 1,4
15.12.2017 14:00:00 10,2 5,8 8,2 10,0 11,3 27 15 54 29 W 1010,2 19 17 0,8
15.12.2017 13:00:00 8,1 6,4 7,6 10,0 11,3 10 6 41 22 WZW 1010,8 6 2 1,0
15.12.2017 12:00:00 8,9 5,8 7,9 10,0 11,3 23 12 46 25 WZW 1011,3 16 34 0,6
15.12.2017 11:00:00 8,5 5,9 8,6 10,0 11,2 22 12 44 24 WZW 1011,5 15 36 0,0
15.12.2017 10:00:00 8,3 6,1 6,8 10,1 11,2 14 8 31 17 ZW 1011,0 11 15 1,0
15.12.2017 09:00:00 7,7 5,8 7,2 10,2 11,2 15 8 29 15 ZW 1010,4 10 0 0,0
15.12.2017 08:00:00 7,7 6,5 7,1 10,3 11,2 11 6 42 23 ZW 1010,4 5 0 5,0
15.12.2017 07:00:00 9,0 5,9 6,9 10,4 11,2 18 10 52 28 WZW 1010,0 15 0 0,4
15.12.2017 06:00:00 8,1 5,4 7,1 10,5 11,2 32 17 50 27 WNW 1010,3 10 0 3,1
15.12.2017 05:00:00 8,7 7,3 8,0 10,5 11,2 16 9 70 38 NW 1010,0 7 0 3,6
15.12.2017 04:00:00 9,9 7,7 9,0 10,6 11,2 42 23 74 40 W 1009,3 4,7 0 1,0
15.12.2017 03:00:00 12,0 7,3 10,3 10,6 11,2 29 15 73 40 W 1008,9 16 0 0,0
15.12.2017 02:00:00 12,4 7,9 11,8 10,7 11,2 44 24 81 44 W 1009,7 15 0 0,0
15.12.2017 01:00:00 12,6 8,9 11,5 10,6 11,1 39 21 80 43 W 1010,7 10 0 0,0
15.12.2017 00:00:00 11,8 8,8 11,4 10,7 11,1 44 24 76 41 WNW 1011,3 13 0 0,0
14.12.2017 23:00:00 13,3 9,4 12,3 10,7 11,1 32 18 55 30 W 1011,3 10 0 0,0
14.12.2017 22:00:00 12,7 9,9 10,7 10,7 11,1 24 13 42 23 WZW 1011,4 11 0 0,0
14.12.2017 21:00:00 11,5 10,1 10,9 10,6 11,1 34 19 60 32 W 1011,8 4,0 0 3,6
14.12.2017 20:00:00 12,1 10,8 11,7 10,6 11,1 19 10 46 25 WZW 1011,7 4,1 0 0,2
14.12.2017 19:00:00 12,4 11,0 11,8 10,6 11,1 23 12 53 29 W 1011,9 7 0 0,2
14.12.2017 18:00:00 13,3 10,3 12,6 10,5 11,1 32 17 53 29 W 1012,2 18 0 0,0
14.12.2017 17:00:00 13,8 9,8 13,7 10,5 11,1 28 15 57 31 W 1012,7 40 1 0,0
14.12.2017 16:00:00 13,7 10,1 13,6 10,4 11,1 34 18 50 27 W 1013,2 10 0 0,0
14.12.2017 15:00:00 13,6 9,8 13,8 10,2 11,1 34 18 51 28 W 1013,7 39 0 0,0
14.12.2017 14:00:00 13,7 10,1 13,8 10,2 11,1 22 12 39 21 W 1014,5 20 0 0,0
14.12.2017 13:00:00 14,0 10,0 15,1 10,0 11,1 26 14 39 21 W 1015,0 15 42 0,0
14.12.2017 12:00:00 13,8 10,6 12,0 9,9 11,1 11 6 - - WZW 1015,6 40 28 0,0
14.12.2017 11:00:00 12,2 10,6 11,8 9,9 11,1 15 8 33 18 WZW 1016,3 10 2 0,0
14.12.2017 10:00:00 11,9 10,0 10,9 9,9 11,1 15 8 30 16 WZW 1017,2 17 0 0,4
14.12.2017 09:00:00 11,7 9,9 10,7 9,8 11,1 16 9 32 17 WZW 1017,5 17 0 0,2
14.12.2017 08:00:00 11,5 10,1 10,7 9,8 11,1 16 9 32 17 ZW 1017,2 11 0 0,4
14.12.2017 07:00:00 11,3 10,0 10,8 9,8 11,1 16 9 31 17 ZW 1017,1 9 0 0,2
14.12.2017 06:00:00 11,2 10,3 10,8 9,7 11,1 15 8 29 15 ZW 1017,2 17 0 0,2
14.12.2017 05:00:00 11,2 10,3 10,9 9,7 11,1 15 8 31 17 WZW 1018,0 10 0 0,4
14.12.2017 04:00:00 11,2 10,3 10,9 9,6 11,1 18 10 36 19 ZW 1018,1 11 0 1,4
14.12.2017 03:00:00 11,3 10,8 11,0 9,6 11,1 16 9 31 17 WZW 1018,2 6 0 1,2
14.12.2017 02:00:00 11,1 10,6 11,0 9,5 11,1 13 7 33 18 ZW 1018,2 3,9 0 0,8
14.12.2017 01:00:00 11,6 10,8 11,3 9,4 11,1 13 7 40 21 WZW 1018,6 6 0 0,2
14.12.2017 00:00:00 12,0 11,1 11,7 9,4 11,1 21 11 49 26 WZW 1018,8 8 0 0,4
13.12.2017 23:00:00 13,0 10,9 11,1 9,3 11,1 24 13 44 24 W 1018,2 40 0 0,2
13.12.2017 22:00:00 11,9 10,3 11,3 9,2 11,1 22 12 56 31 WZW 1017,8 6 0 0,2
13.12.2017 21:00:00 13,5 7,5 10,8 9,2 11,1 13 7 30 16 WZW 1017,4 18 0 0,0
13.12.2017 20:00:00 12,9 5,8 12,2 9,1 11,2 11 6 39 21 ZW 1017,4 60 0 0,0
13.12.2017 19:00:00 13,7 6,1 9,2 9,1 11,1 16 9 39 21 WZW 1017,4 55 0 0,2
13.12.2017 18:00:00 12,6 5,3 9,8 9,0 11,2 9 5 21 11 ZW 1017,2 14 0 0,0
13.12.2017 17:00:00 12,3 3,8 12,0 8,9 11,1 9 5 29 16 ZZW 1016,8 10 0 0,0
13.12.2017 16:00:00 12,2 3,9 12,0 8,8 11,2 13 7 32 17 Z 1016,9 10 0 0,0
13.12.2017 15:00:00 12,0 4,5 12,1 8,7 11,1 10 5 24 13 Z 1017,8 60 0 0,0
13.12.2017 14:00:00 12,2 5,1 12,8 8,5 11,2 13 7 27 14 Z 1018,5 60 0 0,0
13.12.2017 13:00:00 12,6 5,7 12,4 8,4 11,1 12 7 35 19 Z 1019,3 58 3 0,0
13.12.2017 12:00:00 11,8 5,9 10,4 8,3 11,2 14 7 29 16 ZZW 1020,1 57 5 0,0
13.12.2017 11:00:00 9,9 6,1 9,7 8,2 11,2 14 8 31 17 ZZW 1020,9 19 0 0,0
13.12.2017 10:00:00 9,3 6,0 7,7 8,2 11,2 10 5 22 12 Z 1021,1 60 0 0,0
13.12.2017 09:00:00 8,7 4,7 7,6 8,2 11,2 10 5 22 12 ZZW 1021,1 13 0 0,0
13.12.2017 08:00:00 8,9 2,7 7,7 8,3 11,2 12 6 26 14 ZZW 1020,9 60 0 0,0
13.12.2017 07:00:00 8,0 2,2 6,9 8,3 11,2 8 4 22 12 ZZW 1020,4 60 0 0,0
13.12.2017 06:00:00 7,4 1,9 5,8 8,4 11,2 11 6 26 14 Z 1019,9 60 0 0,0
13.12.2017 05:00:00 6,8 1,7 4,9 8,5 11,2 11 6 23 12 Z 1020,9 60 0 0,0
13.12.2017 04:00:00 6,5 1,8 4,2 8,5 11,3 7 4 18 10 ZZW 1021,4 60 0 0,0
13.12.2017 03:00:00 7,1 2,4 4,9 8,6 11,2 5 3 14 8 Z 1021,2 60 0 0,0
13.12.2017 02:00:00 6,6 3,0 4,3 8,6 11,2 5 3 12 6 Z 1021,5 60 0 0,0
13.12.2017 01:00:00 6,9 3,7 5,6 8,6 11,2 6 3 10 6 ZZW 1022,1 60 0 0,0
13.12.2017 00:00:00 6,6 4,1 5,1 8,7 11,2 6 4 10 6 Z 1022,5 54 0 0,0
12.12.2017 23:00:00 5,9 4,2 3,0 8,8 11,2 6 3 9 5 ZZW 1022,2 8 0 0,0
12.12.2017 22:00:00 5,2 3,5 2,6 8,8 11,3 5 3 8 4 Z 1021,8 30 0 0,0
12.12.2017 21:00:00 6,2 5,2 4,5 8,8 11,3 4 2 10 5 OZO 1021,2 15 0 0,4
12.12.2017 20:00:00 7,6 5,1 6,7 8,8 11,3 4 2 8 4 - 1021,2 10 0 0,0
12.12.2017 19:00:00 8,0 6,3 7,4 8,8 11,3 0 0 29 16 N 1020,8 46 0 1,2
12.12.2017 18:00:00 9,4 4,0 7,8 8,8 11,3 6 3 17 9 ZW 1019,9 43 4 0,0
12.12.2017 17:00:00 9,6 3,8 9,8 8,8 11,3 9 5 23 12 W 1019,4 56 58 0,0
12.12.2017 16:00:00 10,1 3,8 11,9 8,7 11,3 11 6 24 13 W 1018,5 55 60 0,0
12.12.2017 15:00:00 10,5 3,5 12,9 8,6 11,3 11 6 22 12 W 1018,3 50 60 0,0
12.12.2017 14:00:00 10,1 3,8 12,4 8,5 11,3 10 5 24 13 WZW 1018,0 51 60 0,0
12.12.2017 13:00:00 9,5 4,5 10,9 8,4 11,3 14 7 26 14 ZW 1017,9 20 57 0,0
12.12.2017 12:00:00 8,8 5,0 10,0 8,5 11,3 11 6 21 11 ZW 1017,9 20 51 0,0
12.12.2017 11:00:00 7,5 4,8 6,9 8,5 11,3 10 5 18 10 ZW 1017,4 20 44 0,0
12.12.2017 10:00:00 5,7 3,7 4,8 8,6 11,3 6 4 12 7 Z 1016,4 56 60 0,0
12.12.2017 09:00:00 3,7 2,5 1,6 8,8 11,3 6 3 11 6 ZZO 1015,5 56 5 0,0
12.12.2017 08:00:00 3,6 2,4 1,6 8,9 11,3 7 4 10 6 Z 1014,6 60 0 0,0
12.12.2017 07:00:00 3,9 3,0 2,6 9,0 11,3 6 3 15 8 Z 1013,4 55 0 0,2
12.12.2017 06:00:00 4,0 3,0 2,8 9,1 11,3 5 3 8 4 ZZO 1012,4 37 0 0,0
12.12.2017 05:00:00 5,2 3,5 4,7 9,2 11,3 3 2 35 19 NNO 1011,4 8 0 3,4
12.12.2017 04:00:00 7,0 5,3 6,4 9,3 11,3 4 2 21 12 OZO 1009,5 6 0 1,2
12.12.2017 03:00:00 7,9 5,0 6,0 9,3 11,3 10 5 24 13 N 1008,3 27 0 0,6
12.12.2017 02:00:00 6,9 5,0 6,0 9,4 11,2 16 8 40 22 WNW 1007,2 18 0 2,4
12.12.2017 01:00:00 6,7 5,2 5,6 9,5 11,3 22 12 59 32 WZW 1006,6 7 0 2,9
12.12.2017 00:00:00 6,1 4,4 4,5 9,6 11,2 21 11 75 41 WZW 1005,5 9 0 2,8
11.12.2017 23:00:00 6,7 4,9 5,5 9,7 11,2 12 7 55 30 ZW 1003,9 20 0 1,0
11.12.2017 22:00:00 6,5 5,0 6,0 9,8 11,2 19 10 50 27 ZZW 1003,0 13 0 0,2
11.12.2017 21:00:00 7,1 5,9 6,2 9,9 11,2 8 5 63 34 WZW 1001,6 8 0 2,5
11.12.2017 20:00:00 9,2 6,1 7,0 9,9 11,2 39 21 66 35 W 999,5 10 0 1,8
11.12.2017 19:00:00 8,0 6,3 6,9 10,0 11,2 29 16 71 39 WZW 998,1 10 0 2,0
11.12.2017 18:00:00 8,1 6,2 7,2 10,1 11,2 29 16 61 33 WZW 996,8 4,2 1 1,2
11.12.2017 17:00:00 9,2 5,7 7,7 10,1 11,2 29 16 66 36 W 994,6 11 0 0,4
11.12.2017 16:00:00 9,7 5,5 8,1 10,2 11,2 31 17 76 41 W 993,1 20 0 0,2
11.12.2017 15:00:00 10,5 5,0 8,8 10,1 11,1 41 22 76 41 W 992,2 10 2 0,0
11.12.2017 14:00:00 10,6 6,2 10,6 10,1 11,1 41 22 72 39 W 991,4 10 29 0,0
11.12.2017 13:00:00 11,8 5,0 9,2 10,1 11,1 33 18 69 37 WZW 990,9 15 38 0,0
11.12.2017 12:00:00 11,5 4,5 10,4 10,1 11,1 20 11 43 23 WZW 990,5 18 49 0,0
11.12.2017 11:00:00 9,7 4,7 8,8 10,2 11,1 17 9 32 17 ZW 990,3 60 0 0,0
11.12.2017 10:00:00 8,8 5,2 8,0 10,3 11,1 12 6 23 13 ZW 989,3 60 0 0,0
11.12.2017 09:00:00 9,0 6,4 7,8 10,3 11,1 10 5 48 26 ZW 988,8 19 0 0,4
11.12.2017 08:00:00 9,3 5,8 8,0 10,4 11,1 15 8 33 18 WZW 988,0 47 0 0,0
11.12.2017 07:00:00 8,8 6,4 8,1 10,5 11,1 17 9 42 23 ZW 986,9 20 0 0,2

tt = temperatuur
td = dauwpunt
tt 5cm = temperatuur 5cm
tt -20cm = temperatuur -20cm
tt -100cm = temperatuur -100cm
ff = windsnelheid
fx = windstoten
dd = windrichting
ppp = luchtdruk
vv = zicht
sd = Zonneschijnduur
rr = neerslag

Weerstations in de omgeving